DLH441J DTMB-DTTA

Flight info

Callsign DLH441J
Flight time 0h 27m
Altitude 12000
Route LARBI1A LARBI DCT GIBLI
Aircraft A346/H-SDE2E3FGHIJ3J4J5M1RWXY/LB1D1

Departure

Time 2026-05-06 09:55
Airport Monastir Habib Bourguiba International Airport (DTMB)

Arrival

Time 2026-05-06 10:22
Airport Tunis Carthage International Airport (DTTA)
Time Latitude Longitude Altitude Speed Heading
2026-05-06 09:55 35.99008 10.63890 11949 ft 360 kts 336°
2026-05-06 09:55 36.00826 10.63042 11950 ft 360 kts 336°
2026-05-06 09:55 36.03176 10.61944 11948 ft 361 kts 336°
2026-05-06 09:56 36.05530 10.60844 11940 ft 361 kts 336°
2026-05-06 09:56 36.07887 10.59739 11938 ft 361 kts 336°
2026-05-06 09:56 36.10204 10.58651 11940 ft 361 kts 336°
2026-05-06 09:56 36.12590 10.57530 11938 ft 361 kts 336°
2026-05-06 09:57 36.14936 10.56427 11946 ft 364 kts 336°
2026-05-06 09:57 36.17351 10.55291 11783 ft 365 kts 335°
2026-05-06 09:57 36.19724 10.54174 11544 ft 363 kts 335°
2026-05-06 09:57 36.22087 10.53063 11296 ft 363 kts 335°
2026-05-06 09:58 36.24452 10.51942 11057 ft 362 kts 335°
2026-05-06 09:58 36.26778 10.50831 10819 ft 362 kts 335°
2026-05-06 09:58 36.29129 10.49704 10600 ft 358 kts 335°
2026-05-06 09:58 36.31439 10.48596 10304 ft 352 kts 335°
2026-05-06 09:59 36.33710 10.47509 10029 ft 347 kts 335°
2026-05-06 09:59 36.35950 10.46437 9788 ft 339 kts 335°
2026-05-06 09:59 36.38116 10.45399 9669 ft 328 kts 335°
2026-05-06 09:59 36.40215 10.44405 9529 ft 318 kts 335°
2026-05-06 10:00 36.42242 10.43453 9407 ft 315 kts 335°
2026-05-06 10:00 36.44291 10.42490 9272 ft 315 kts 336°
2026-05-06 10:00 36.46339 10.41525 9140 ft 314 kts 336°
2026-05-06 10:00 36.48384 10.40563 9012 ft 313 kts 336°
2026-05-06 10:01 36.50421 10.39603 8895 ft 312 kts 336°
2026-05-06 10:01 36.52458 10.38639 8754 ft 312 kts 336°
2026-05-06 10:01 36.54483 10.37683 8642 ft 310 kts 336°
2026-05-06 10:01 36.56479 10.36739 8516 ft 304 kts 337°
2026-05-06 10:02 36.58453 10.35808 8385 ft 302 kts 337°
2026-05-06 10:02 36.60390 10.34894 8264 ft 302 kts 337°
2026-05-06 10:02 36.62395 10.33947 8139 ft 302 kts 336°
2026-05-06 10:02 36.64334 10.33029 8014 ft 301 kts 337°
2026-05-06 10:03 36.66289 10.32103 7891 ft 300 kts 337°
2026-05-06 10:03 36.68243 10.31177 7745 ft 300 kts 337°
2026-05-06 10:03 36.70196 10.30252 7614 ft 298 kts 337°
2026-05-06 10:03 36.72128 10.29335 7499 ft 297 kts 337°
2026-05-06 10:04 36.74063 10.28415 7354 ft 297 kts 337°
2026-05-06 10:04 36.76002 10.27489 7234 ft 295 kts 337°
2026-05-06 10:04 36.77918 10.26580 7093 ft 295 kts 337°
2026-05-06 10:04 36.79845 10.25662 6937 ft 294 kts 337°
2026-05-06 10:05 36.81747 10.24753 6763 ft 288 kts 337°
2026-05-06 10:05 36.83626 10.23888 6512 ft 286 kts 343°
2026-05-06 10:05 36.85615 10.23838 6174 ft 287 kts 17°
2026-05-06 10:05 36.87329 10.25052 5901 ft 283 kts 39°
2026-05-06 10:06 36.88838 10.26620 5609 ft 282 kts 41°
2026-05-06 10:06 36.90337 10.28201 5300 ft 280 kts 41°
2026-05-06 10:06 36.91843 10.29752 5013 ft 279 kts 40°
2026-05-06 10:06 36.93361 10.31282 4749 ft 278 kts 40°
2026-05-06 10:07 36.94851 10.32769 4454 ft 276 kts 40°
2026-05-06 10:07 36.96354 10.34257 4134 ft 276 kts 40°
2026-05-06 10:07 36.97855 10.35744 3811 ft 274 kts 40°
2026-05-06 10:07 36.99451 10.37065 3479 ft 276 kts 21°
2026-05-06 10:08 37.00722 10.37357 3270 ft 277 kts
2026-05-06 10:08 37.02588 10.36808 2948 ft 276 kts 332°
2026-05-06 10:08 37.04036 10.35298 2729 ft 267 kts 303°
2026-05-06 10:08 37.04769 10.33298 2713 ft 247 kts 278°
2026-05-06 10:09 37.04799 10.31206 2684 ft 237 kts 253°
2026-05-06 10:09 37.04208 10.29354 2633 ft 222 kts 231°
2026-05-06 10:09 37.03174 10.27982 2473 ft 214 kts 208°
2026-05-06 10:09 37.01876 10.27264 2381 ft 198 kts 192°
2026-05-06 10:10 37.00579 10.26868 2127 ft 187 kts 187°
2026-05-06 10:10 36.99347 10.26560 1958 ft 171 kts 186°
2026-05-06 10:10 36.98223 10.26275 1961 ft 162 kts 186°
2026-05-06 10:10 36.97119 10.25985 1951 ft 161 kts 186°
2026-05-06 10:11 36.96021 10.25687 1861 ft 161 kts 185°
2026-05-06 10:11 36.94932 10.25389 1661 ft 160 kts 186°
2026-05-06 10:11 36.93845 10.25091 1427 ft 159 kts 186°
2026-05-06 10:11 36.92765 10.24793 1262 ft 159 kts 186°
2026-05-06 10:12 36.91687 10.24498 1052 ft 158 kts 187°
2026-05-06 10:12 36.90609 10.24203 832 ft 158 kts 188°
2026-05-06 10:12 36.89532 10.23907 645 ft 158 kts 188°
2026-05-06 10:12 36.88475 10.23618 403 ft 158 kts 190°
2026-05-06 10:13 36.87404 10.23327 229 ft 157 kts 191°
2026-05-06 10:13 36.86334 10.23031 52 ft 156 kts 190°
2026-05-06 10:13 36.85333 10.22763 43 ft 152 kts 191°
2026-05-06 10:13 36.84165 10.22414 402 ft 182 kts 191°
2026-05-06 10:14 36.82948 10.22079 1327 ft 172 kts 186°
2026-05-06 10:14 36.81762 10.22203 1828 ft 176 kts 153°
2026-05-06 10:14 36.80858 10.23354 1995 ft 200 kts 117°
2026-05-06 10:14 36.80656 10.25104 2001 ft 212 kts 90°
2026-05-06 10:15 36.80861 10.26949 2010 ft 215 kts 83°
2026-05-06 10:15 36.81406 10.28693 1979 ft 221 kts 61°
2026-05-06 10:15 36.82379 10.30206 1996 ft 222 kts 54°
2026-05-06 10:15 36.83400 10.31649 2001 ft 223 kts 49°
2026-05-06 10:16 36.84729 10.32675 1996 ft 231 kts 27°
2026-05-06 10:16 36.86242 10.33385 1993 ft 232 kts 24°
2026-05-06 10:16 36.87774 10.34039 2002 ft 232 kts 24°
2026-05-06 10:16 36.89312 10.34678 2000 ft 235 kts 23°
2026-05-06 10:17 36.90863 10.35341 2000 ft 236 kts 22°
2026-05-06 10:17 36.92492 10.35696 1994 ft 240 kts
2026-05-06 10:17 36.94170 10.35634 1992 ft 241 kts 354°
2026-05-06 10:17 36.95649 10.34804 1962 ft 228 kts 319°
2026-05-06 10:18 36.96591 10.33325 1974 ft 210 kts 302°
2026-05-06 10:18 36.97332 10.31787 1965 ft 198 kts 291°
2026-05-06 10:18 36.97776 10.30212 1961 ft 188 kts 283°
2026-05-06 10:18 36.98102 10.28691 1966 ft 180 kts 282°
2026-05-06 10:19 36.98251 10.27174 1964 ft 170 kts 249°
2026-05-06 10:19 36.97627 10.26027 1980 ft 155 kts 202°
2026-05-06 10:19 36.96598 10.25623 1993 ft 158 kts 184°
2026-05-06 10:19 36.95500 10.25441 1796 ft 160 kts 182°
2026-05-06 10:20 36.94397 10.25218 1578 ft 160 kts 185°
2026-05-06 10:20 36.93321 10.24943 1351 ft 159 kts 187°
2026-05-06 10:20 36.92243 10.24646 1148 ft 158 kts 187°
2026-05-06 10:20 36.91169 10.24351 941 ft 158 kts 187°
2026-05-06 10:21 36.90090 10.24058 729 ft 158 kts 189°
2026-05-06 10:21 36.89019 10.23766 586 ft 157 kts 188°
2026-05-06 10:21 36.87951 10.23482 319 ft 157 kts 189°
2026-05-06 10:21 36.86885 10.23190 137 ft 157 kts 190°
2026-05-06 10:22 36.85849 10.22901 38 ft 141 kts 191°
2026-05-06 10:22 36.85187 10.22721 42 ft 56 kts 193°
2026-05-06 10:22 36.84891 10.22642 41 ft 35 kts 192°
2026-05-06 10:22 36.84654 10.22576 37 ft 34 kts 198°
2026-05-06 10:23 36.84514 10.22450 38 ft 25 kts 235°
2026-05-06 10:23 36.84481 10.22303 39 ft 13 kts 266°
2026-05-06 10:23 36.84495 10.22187 39 ft 8 kts 282°
2026-05-06 10:23 36.84511 10.22117 39 ft 8 kts 295°
2026-05-06 10:24 36.84557 10.22086 39 ft 4 kts 346°
2026-05-06 10:24 36.84576 10.22065 39 ft 5 kts 298°
2026-05-06 10:24 36.84586 10.22042 39 ft 1 kts 299°
2026-05-06 10:24 36.84594 10.22024 39 ft 4 kts 300°
2026-05-06 10:25 36.84597 10.22017 39 ft 0 kts 300°